When you browse on this site, cookies collect data to enhance your experience and personalize the content and advertising you see.
Visit our Privacy Policy to learn more. By continuing to use the site, you agree to this use of cookies and data.
  • In United Kingdom
  • List of Countries
  • For 7 days
  • Water Temperature
  • Satellite Maps
  • Weather Map
  • Weather Widgets
  • user-avatar
    Login

    Hourly Weather Larga Noua

    Today, 18 November, Sunday

    Time Temperature Precipitation Wind Pressure Humidity
    00:00 -2°C° 0 mm 3 mps 768 mmHg 81%
    01:00 -4°C° 0 mm 3 mps 767 mmHg 82%
    02:00 -3°C° 0 mm 2 mps 767 mmHg 81%
    03:00 -3°C° 0 mm 2 mps 767 mmHg 82%
    04:00 -3°C° 0 mm 2 mps 767 mmHg 83%
    05:00 -3°C° 0 mm 2 mps 766 mmHg 84%
    06:00 -3°C° 0 mm 2 mps 766 mmHg 83%
    07:00 -3°C° 0 mm 2 mps 765 mmHg 83%
    08:00 -3°C° 0 mm 2 mps 765 mmHg 78%
    09:00 -2°C° 0 mm 2 mps 765 mmHg 73%
    10:00 +1°C° 0 mm 2 mps 764 mmHg 68%
    11:00 +2°C° 0 mm 2 mps 764 mmHg 63%
    12:00 +3°C° 0 mm 1 mps 763 mmHg 62%
    13:00 +4°C° 0 mm 1 mps 763 mmHg 60%
    14:00 +4°C° 0 mm 0 mps 762 mmHg 59%
    15:00 +4°C° 0 mm 1 mps 761 mmHg 63%
    16:00 +3°C° 0 mm 1 mps 761 mmHg 66%
    17:00 +2°C° 0 mm 1 mps 761 mmHg 70%
    18:00 +2°C° 0 mm 1 mps 760 mmHg 71%
    19:00 +2°C° 0 mm 1 mps 760 mmHg 73%
    20:00 +2°C° 0 mm 1 mps 760 mmHg 75%
    21:00 +2°C° 0 mm 1 mps 760 mmHg 74%
    22:00 +2°C° 0 mm 1 mps 760 mmHg 74%
    23:00 +2°C° 0 mm 1 mps 760 mmHg 74%

    Tomorrow, 19 November, Monday

    Time Temperature Precipitation Wind Pressure Humidity
    00:00 +2°C° 0 mm 1 mps 759 mmHg 73%
    01:00 +1°C° 0 mm 2 mps 759 mmHg 72%
    02:00 0°C° 0 mm 3 mps 758 mmHg 72%
    03:00 -1°C° 0.2 mm 4 mps 758 mmHg 72%
    04:00 -1°C° 0.2 mm 4 mps 757 mmHg 72%
    05:00 0°C° 0.2 mm 5 mps 757 mmHg 73%
    06:00 -2°C° 0.9 mm 6 mps 756 mmHg 78%
    07:00 -2°C° 0.9 mm 6 mps 756 mmHg 84%
    08:00 -2°C° 0.9 mm 7 mps 756 mmHg 89%
    09:00 -1°C° 1.2 mm 7 mps 755 mmHg 90%
    10:00 -1°C° 1.2 mm 8 mps 755 mmHg 90%
    11:00 0°C° 1.2 mm 9 mps 754 mmHg 91%
    12:00 0°C° 2.8 mm 8 mps 754 mmHg 91%
    13:00 0°C° 2.8 mm 8 mps 754 mmHg 92%
    14:00 0°C° 2.8 mm 8 mps 753 mmHg 93%
    15:00 0°C° 2.5 mm 8 mps 753 mmHg 92%
    16:00 -1°C° 2.5 mm 9 mps 754 mmHg 92%
    17:00 -1°C° 2.5 mm 9 mps 754 mmHg 92%
    18:00 -1°C° 0.5 mm 9 mps 754 mmHg 92%
    19:00 -1°C° 0.5 mm 8 mps 754 mmHg 91%
    20:00 -2°C° 0.5 mm 8 mps 755 mmHg 91%
    21:00 -2°C° 0.2 mm 8 mps 755 mmHg 90%
    22:00 -2°C° 0.2 mm 7 mps 756 mmHg 90%
    23:00 -3°C° 0.2 mm 7 mps 757 mmHg 89%

    Day after tomorrow, 20 November, Tuesday

    Time Temperature Precipitation Wind Pressure Humidity
    00:00 -3°C° 0 mm 7 mps 757 mmHg 89%
    01:00 -3°C° 0 mm 7 mps 758 mmHg 89%
    02:00 -3°C° 0 mm 6 mps 758 mmHg 89%
    03:00 -3°C° 0 mm 6 mps 759 mmHg 89%
    04:00 -4°C° 0 mm 6 mps 759 mmHg 89%
    05:00 -4°C° 0 mm 5 mps 759 mmHg 90%
    06:00 -4°C° 0 mm 5 mps 760 mmHg 90%
    07:00 -4°C° 0 mm 5 mps 760 mmHg 90%
    08:00 -4°C° 0 mm 4 mps 760 mmHg 91%
    09:00 -3°C° 0 mm 4 mps 760 mmHg 91%
    10:00 -2°C° 0 mm 4 mps 761 mmHg 91%
    11:00 -1°C° 0 mm 4 mps 761 mmHg 91%
    12:00 -1°C° 0 mm 4 mps 761 mmHg 92%
    13:00 0°C° 0 mm 3 mps 760 mmHg 93%
    14:00 0°C° 0 mm 3 mps 760 mmHg 94%
    15:00 0°C° 0 mm 3 mps 760 mmHg 93%
    16:00 0°C° 0 mm 3 mps 760 mmHg 93%
    17:00 +1°C° 0 mm 2 mps 760 mmHg 92%
    18:00 +1°C° 0 mm 2 mps 760 mmHg 92%
    19:00 +1°C° 0 mm 2 mps 760 mmHg 93%
    20:00 +1°C° 0 mm 2 mps 760 mmHg 93%
    21:00 +1°C° 0.1 mm 2 mps 760 mmHg 93%
    22:00 +1°C° 0.1 mm 2 mps 760 mmHg 94%
    23:00 +1°C° 0.1 mm 2 mps 760 mmHg 94%

    21 November, Wednesday

    Time Temperature Precipitation Wind Pressure Humidity
    00:00 +1°C° 0.2 mm 2 mps 760 mmHg 95%
    01:00 +1°C° 0.2 mm 2 mps 760 mmHg 95%
    02:00 +1°C° 0.2 mm 2 mps 760 mmHg 96%
    03:00 +1°C° 0.2 mm 2 mps 759 mmHg 96%
    04:00 +1°C° 0.2 mm 2 mps 759 mmHg 96%
    05:00 +1°C° 0.2 mm 2 mps 759 mmHg 96%
    06:00 0°C° 0.3 mm 3 mps 759 mmHg 96%
    07:00 0°C° 0.3 mm 3 mps 759 mmHg 96%
    08:00 0°C° 0.3 mm 3 mps 759 mmHg 96%
    09:00 +1°C° 0.4 mm 3 mps 759 mmHg 96%
    10:00 0°C° 0.4 mm 4 mps 759 mmHg 96%
    11:00 0°C° 0.4 mm 4 mps 759 mmHg 96%
    12:00 0°C° 0.2 mm 4 mps 759 mmHg 96%
    13:00 0°C° 0.2 mm 4 mps 758 mmHg 95%
    14:00 0°C° 0.2 mm 4 mps 758 mmHg 95%
    15:00 0°C° 0.2 mm 4 mps 758 mmHg 95%
    16:00 0°C° 0.2 mm 4 mps 758 mmHg 95%
    17:00 0°C° 0.2 mm 4 mps 758 mmHg 94%
    18:00 0°C° 0.1 mm 4 mps 759 mmHg 94%
    19:00 0°C° 0.1 mm 5 mps 759 mmHg 93%
    20:00 -1°C° 0.1 mm 5 mps 759 mmHg 93%
    21:00 -1°C° 0.1 mm 5 mps 759 mmHg 93%
    22:00 -1°C° 0.1 mm 4 mps 760 mmHg 92%
    23:00 -1°C° 0.1 mm 4 mps 760 mmHg 92%

    22 November, Thursday

    Time Temperature Precipitation Wind Pressure Humidity
    00:00 -1°C° 0.1 mm 4 mps 760 mmHg 92%
    01:00 -1°C° 0.1 mm 5 mps 760 mmHg 92%
    02:00 -2°C° 0.1 mm 5 mps 760 mmHg 93%
    03:00 -2°C° 0 mm 5 mps 760 mmHg 92%
    04:00 -2°C° 0 mm 5 mps 760 mmHg 92%
    05:00 -2°C° 0 mm 5 mps 760 mmHg 92%
    06:00 -2°C° 0 mm 5 mps 761 mmHg 92%
    07:00 -2°C° 0 mm 5 mps 761 mmHg 92%
    08:00 -2°C° 0 mm 4 mps 761 mmHg 92%
    09:00 -2°C° 0 mm 4 mps 762 mmHg 91%
    10:00 -2°C° 0 mm 5 mps 762 mmHg 91%
    11:00 -1°C° 0 mm 5 mps 762 mmHg 90%
    12:00 -1°C° 0 mm 5 mps 762 mmHg 90%
    13:00 -1°C° 0 mm 5 mps 762 mmHg 89%
    14:00 -1°C° 0 mm 5 mps 762 mmHg 88%
    15:00 -1°C° 0 mm 5 mps 762 mmHg 89%
    16:00 -2°C° 0 mm 5 mps 763 mmHg 89%
    17:00 -2°C° 0 mm 4 mps 763 mmHg 89%
    18:00 -3°C° 0 mm 4 mps 764 mmHg 89%
    19:00 -3°C° 0 mm 4 mps 764 mmHg 89%
    20:00 -4°C° 0 mm 4 mps 765 mmHg 88%
    21:00 -4°C° 0 mm 4 mps 765 mmHg 88%
    22:00 -5°C° 0 mm 3 mps 765 mmHg 88%
    23:00 -5°C° 0 mm 3 mps 765 mmHg 88%

    23 November, Friday

    Time Temperature Precipitation Wind Pressure Humidity
    00:00 -5°C° 0 mm 3 mps 765 mmHg 88%
    01:00 -6°C° 0 mm 3 mps 765 mmHg 88%
    02:00 -6°C° 0 mm 3 mps 766 mmHg 87%
    03:00 -6°C° 0 mm 3 mps 766 mmHg 87%
    04:00 -6°C° 0 mm 3 mps 766 mmHg 88%
    05:00 -6°C° 0 mm 3 mps 766 mmHg 88%
    06:00 -6°C° 0 mm 3 mps 767 mmHg 87%
    07:00 -6°C° 0 mm 3 mps 767 mmHg 87%
    08:00 -6°C° 0 mm 3 mps 767 mmHg 87%
    09:00 -5°C° 0 mm 3 mps 767 mmHg 85%
    10:00 -4°C° 0 mm 3 mps 768 mmHg 82%
    11:00 -2°C° 0 mm 3 mps 768 mmHg 80%
    12:00 -1°C° 0 mm 3 mps 767 mmHg 80%
    13:00 -1°C° 0 mm 3 mps 767 mmHg 80%
    14:00 -1°C° 0 mm 3 mps 767 mmHg 79%
    15:00 -2°C° 0 mm 3 mps 767 mmHg 83%
    16:00 -3°C° 0 mm 2 mps 767 mmHg 86%
    17:00 -4°C° 0 mm 2 mps 767 mmHg 89%
    18:00 -4°C° 0 mm 2 mps 767 mmHg 89%
    19:00 -2°C° 0 mm 1 mps 767 mmHg 89%
    20:00 -3°C° 0 mm 1 mps 767 mmHg 90%
    21:00 -3°C° 0 mm 1 mps 767 mmHg 89%
    22:00 -3°C° 0 mm 1 mps 767 mmHg 89%
    23:00 -3°C° 0 mm 1 mps 767 mmHg 88%
    Show more